TimePST,TemperatureF,Dew PointF,Humidity,Sea Level PressureIn,VisibilityMPH,Wind Direction,Wind SpeedMPH,Gust SpeedMPH,PrecipitationIn,Events,Conditions,WindDirDegrees,DateUTC
12:53 AM,36.0,34.0,93,29.86,6.0,NNE,3.5,-,N/A,,Scattered Clouds,20,2012-11-09 08:53:00
1:53 AM,35.1,33.1,92,29.88,7.0,Calm,Calm,-,N/A,,Clear,0,2012-11-09 09:53:00
2:53 AM,36.0,34.0,93,29.89,6.0,Calm,Calm,-,N/A,,Overcast,0,2012-11-09 10:53:00
3:53 AM,37.0,34.0,89,29.89,7.0,Calm,Calm,-,N/A,,Overcast,0,2012-11-09 11:53:00
4:53 AM,36.0,34.0,93,29.91,9.0,Calm,Calm,-,N/A,,Overcast,0,2012-11-09 12:53:00
5:53 AM,36.0,33.1,89,29.91,9.0,Calm,Calm,-,N/A,,Overcast,0,2012-11-09 13:53:00
6:53 AM,37.0,34.0,89,29.92,8.0,NW,3.5,-,0.00,,Overcast,310,2012-11-09 14:53:00
7:53 AM,37.0,33.1,86,29.94,6.0,Calm,Calm,-,N/A,,Mostly Cloudy,0,2012-11-09 15:53:00
8:07 AM,37.4,35.6,93,29.93,7.0,Calm,Calm,-,N/A,,Partly Cloudy,0,2012-11-09 16:07:00
8:53 AM,42.1,36.0,79,29.95,10.0,Calm,Calm,-,N/A,,Clear,0,2012-11-09 16:53:00
9:53 AM,46.0,37.9,73,29.94,10.0,Calm,Calm,-,N/A,,Clear,0,2012-11-09 17:53:00
10:53 AM,46.9,37.0,68,29.94,10.0,Calm,Calm,-,N/A,,Clear,0,2012-11-09 18:53:00
11:53 AM,48.9,34.0,56,29.92,10.0,Calm,Calm,-,N/A,,Clear,0,2012-11-09 19:53:00
12:53 PM,50.0,33.1,52,29.89,10.0,Calm,Calm,-,N/A,,Clear,0,2012-11-09 20:53:00
1:53 PM,52.0,32.0,47,29.88,10.0,ENE,4.6,-,N/A,,Clear,70,2012-11-09 21:53:00
2:53 PM,52.0,30.0,43,29.87,10.0,South,4.6,-,N/A,,Scattered Clouds,170,2012-11-09 22:53:00
3:53 PM,51.1,30.0,44,29.88,10.0,South,5.8,-,N/A,,Clear,180,2012-11-09 23:53:00
4:53 PM,48.9,33.1,54,29.88,10.0,South,4.6,-,N/A,,Scattered Clouds,170,2012-11-10 00:53:00
5:53 PM,48.0,33.1,56,29.89,10.0,SSW,4.6,-,N/A,,Partly Cloudy,210,2012-11-10 01:53:00
6:53 PM,48.9,33.1,54,29.90,10.0,SW,5.8,-,N/A,,Overcast,220,2012-11-10 02:53:00
7:53 PM,46.0,33.1,61,29.92,10.0,Calm,Calm,-,N/A,,Scattered Clouds,0,2012-11-10 03:53:00
8:53 PM,42.8,33.8,70,29.92,10.0,SSE,6.9,-,N/A,,Clear,150,2012-11-10 04:53:00
9:53 PM,41.0,34.0,76,29.93,10.0,Calm,Calm,-,N/A,,Clear,0,2012-11-10 05:53:00
10:53 PM,41.0,34.0,76,29.92,10.0,Calm,Calm,-,N/A,,Mostly Cloudy,0,2012-11-10 06:53:00
11:53 PM,39.9,35.1,83,29.94,10.0,Calm,Calm,-,N/A,,Scattered Clouds,0,2012-11-10 07:53:00